Regional Weather Roundup
Issued by NWS Goodland, KS

Home | Current Version | Previous Version | Text Only | Print | Product List | Glossary On
Versions: 1 2 3 4 5 6 7 8 9 10 11 12 13 14 15 16 17 18 19 20 21 22 23 24 25 26 27 28 29 30 31 32 33 34 35 36 37 38 39 40 41 42 43 44 45 46 47 48 49 50
000
ASUS43 KGLD 061308
RWRGLD

GOODLAND FORECAST AREA HOURLY WEATHER ROUNDUP
NATIONAL WEATHER SERVICE GOODLAND KS
700 AM MDT FRI MAY 06 2016

...OFFICIAL OBSERVATIONS...

CITY           SKY/WX    TMP DP  RH WIND       PRES   REMARKS
GOODLAND KS    CLOUDY    55  46  71 S21       29.99R
HILL CITY KS   CLOUDY    59  46  62 S6        30.03R
IMPERIAL NEB   CLOUDY    57  46  66 S7        29.99R
MCCOOK NEB     MOSUNNY   56  47  71 S5        30.00R
AKRON CO       CLOUDY    48  44  86 SE9       29.98S
BURLINGTON CO  CLOUDY    51  45  79 S15       30.00R
LIMON CO       CLOUDY    43  42  97 CALM      30.03R
$$

...UNOFFICIAL OBSERVATIONS...

CITY           SKY/WX    TMP DP  RH WIND       PRES   REMARKS
COLBY KS       SUNNY     57  50  77 S14G21    30.02S
LENORA KS        N/A     57  32  39 MISG        N/A
NORTON KS      SUNNY     57  43  58 SE5       30.01R
SHARON SPRINGS   N/A     54  48  81 S17         N/A
TRIBUNE KS     PTSUNNY   54  48  82 SE13      30.03
KIT CARSON CO    N/A     49  44  84 MISG        N/A
YUMA CO          N/A     52  47  82 SW13G22     N/A
$$




USA.gov is the U.S. government's official web portal to all federal, state and local government web resources and services.